Location: Bottom School (historical)
(37.9078°N, 89.3593°W)
Time: 22:26:23
(UTC+00:00)

Cosmos 1570 Rocket - Pass Details

Date: 11 July 2022
Orbit: 762 x 788 km, 74.1° (Epoch: 07 August)

Event Time Altitude Azimuth Distance (km) Brightness Sun altitude
Exits shadow 08:48:14 - 282° (WNW) 2,416 6.3 -18.6°
Reaches altitude 10° 08:49:12 10° 292° (WNW) 2,310 6.3 -18.4°
Maximum altitude 08:50:25 11° 306° (NW) 2,262 6.4 -18.3°
Drops below altitude 10° 08:51:37 10° 319° (NW) 2,316 6.6 -18.1°
Sets 08:56:18 0° 357° (N) 3,257 8.0 -17.5°
